Погода в Юнусэмре

Турция     38°43′17″N   27°17′06″E
темп.,
°C
ветер,
м/с
пор.,
м/с
влажн.,
%
обл.,
%
осадки,
мм/ч
давл.,
гПа
погр.,
м
13 апреля, вт
вт1300:00+8всв116921 0.0 102110
03:00+7в11735 0.0 102110
06:00+6в22775 0.0 102015
09:00+10в226481 0.0 1021221
12:00+16вюв2247100 0.0 1019710
15:00+19зюз4440100 0.0 10181348
18:00+16з3549100 0.0 1017606
21:00+12з226796 0.0 101814
14 апреля, ср
ср1400:00+11ююв116954 0.0 101714
03:00+10ююв01715 0.0 101710
06:00+9в11740 0.0 101611
09:00+13вюв22626 0.0 1016267
12:00+18ююз5845100 0.0 10151362
15:00+19ююз71042100 0.0 10141572
18:00+17ююз51054100 0.0 10141038
21:00+11юз11740 0.0 101511
15 апреля, чт
чт1500:00+10ююв01810 0.0 101610
03:00+9всв11850 0.0 101610
06:00+9всв11865 0.0 101612
09:00+13в22684 0.0 1016283
12:00+18ююз24495 0.0 10151349
15:00+20юз67405 0.0 10142389
18:00+18зюз57512 0.0 10131753
21:00+12зсз239121 0.1 101545
16 апреля, пт
пт1600:00+11зсз11955 0.1 101517
03:00+10ссз1195100 0.1 101510
06:00+10св119475 0.0 101510
09:00+13в2280100 0.0 1016411
12:00+17юв1156100 0.0 10161334
15:00+19зсз224541 0.1 10141808
18:00+17зсз4456100 0.0 1015663
21:00+13ссз22695 0.0 101522
17 апреля, сб
сб1700:00+12в1174100 0.0 101511
03:00+11в2277100 0.0 101426
06:00+11в2280100 0.4 101442
09:00+11в3690100 2.1 1014255
12:00+15в5871100 0.0 1011574
15:00+19в456152 0.3 1010740
18:00+21зюз48534 0.0 10091438
21:00+14ссз22810 0.0 101017